Flight Track Log - Related Links

Times and Time Zones

All times are in EST time to prevent confusion due to time zone crossing. See the N496DA flight status page for this flight to view local times or setup timezone preferences in your user account.

Time Position Orientation Groundspeed Altitude Reporting Facility
EST Latitude Longitude Course Direction KTS km/h feet Rate Location/Type
Sat 16:59:27 29.6744 -82.3069 234° Southwest 101 187 900  Level Jacksonville Center
Sat 17:00:28 29.6431 -82.2881 152° Southeast 125 232 1.800 787 Climbing Jacksonville Center
Sat 17:01:29 29.6158 -82.2714 152° Southeast 117 217 2.500 738 Climbing Jacksonville Center
Sat 17:02:30 29.5864 -82.2500 148° Southeast 115 212 3.300 639 Climbing Jacksonville Center
Sat 17:03:31 29.5569 -82.2336 154° Southeast 116 214 3.800 590 Climbing Jacksonville Center
Sat 17:04:32 29.5256 -82.2125 150° Southeast 125 232 4.500 590 Climbing Jacksonville Center
Sat 17:05:33 29.4942 -82.1911 149° Southeast 129 238 5.000 295 Climbing Jacksonville Center
Sat 17:06:34 29.4586 -82.1697 152° Southeast 152 282 5.100 49 Climbing Jacksonville Center
Sat 17:07:35 29.4189 -82.1439 150° Southeast 153 283 5.100  Level Jacksonville Center
Sat 17:08:36 29.3831 -82.1203 150° Southeast 148 274 5.100  Level Jacksonville Center
Sat 17:09:37 29.3475 -82.0969 150° Southeast 147 272 5.100 -49 Level Jacksonville Center
Sat 17:10:38 29.3119 -82.0708 147° Southeast 154 285 5.000 -49 Descending Jacksonville Center
Sat 17:11:39 29.2761 -82.0475 150° Southeast 150 278 5.000  Level Jacksonville Center
Sat 17:12:40 29.2406 -82.0286 155° Southeast 151 280 5.000  Level Jacksonville Center
Sat 17:13:41 29.2008 -82.0053 153° Southeast 149 275 5.000 49 Level Jacksonville Center
Sat 17:14:42 29.1631 -81.9819 152° Southeast 145 269 5.100 49 Climbing Jacksonville Center
Sat 17:15:43 29.1294 -81.9561 146° Southeast 145 269 5.100 -37 Level Jacksonville Center
Sat 17:17:23 29.0667 -81.9167 151° Southeast 148 274 5.000 -38 Descending Orlando TRACON
Sat 17:18:23 29.0333 -81.8833 139° Southeast 148 274 5.000  Level Orlando TRACON
Sat 17:19:23 29.0000 -81.8667 156° South 145 269 5.000 50 Level Orlando TRACON
Sat 17:20:23 28.9667 -81.8500 156° South 144 267 5.100  Climbing Orlando TRACON
Sat 17:21:23 28.9333 -81.8167 139° Southeast 143 266 5.000 -50 Descending Orlando TRACON
Sat 17:22:23 28.9000 -81.8000 156° South 145 269 5.000 50 Level Orlando TRACON
Sat 17:23:23 28.8667 -81.7833 156° South 144 267 5.100  Climbing Orlando TRACON
Sat 17:24:24 28.8500 -81.7333 111° Southeast 136 253 5.000 -50 Descending Orlando TRACON
Sat 17:25:24 28.8500 -81.6833 90° East 138 256 5.000  Level Orlando TRACON
Sat 17:26:24 28.8500 -81.6500 90° East 139 257 5.000 50 Level Orlando TRACON
Sat 17:27:24 28.8500 -81.6000 90° East 139 257 5.100  Climbing Orlando TRACON
Sat 17:28:24 28.8500 -81.5667 90° East 136 253 5.000  Descending Orlando TRACON
Sat 17:29:24 28.8500 -81.5167 90° East 134 248 5.100  Climbing Orlando TRACON
Sat 17:30:25 28.8500 -81.4667 90° East 136 253 5.000 -50 Descending Orlando TRACON
Sat 17:31:25 28.8500 -81.4333 90° East 131 243 5.000 -50 Level Orlando TRACON
Sat 17:32:25 28.8500 -81.3833 90° East 135 249 4.900 -200 Descending Orlando TRACON
Sat 17:33:25 28.8500 -81.3500 90° East 135 249 4.600 -300 Descending Orlando TRACON
Sat 17:34:25 28.8500 -81.3000 90° East 136 253 4.300 -450 Descending Orlando TRACON
Sat 17:35:25 28.8667 -81.2667 60° Northeast 144 267 3.700 -545 Descending Orlando TRACON
Sat 17:36:26 28.8667 -81.2167 90° East 142 262 3.200 -298 Descending Orlando TRACON
Sat 17:37:26 28.8833 -81.1667 69° East 140 259 3.100 -300 Descending Orlando TRACON
Sat 17:38:26 28.8833 -81.1333 90° East 142 262 2.600 -450 Descending Orlando TRACON
Sat 17:39:26 28.8833 -81.0833 90° East 137 254 2.200 -500 Descending Orlando TRACON
Sat 17:40:26 28.8500 -81.0667 156° South 138 256 1.600 -300 Descending Orlando TRACON
Sat 17:41:26 28.8167 -81.0500 156° South 122 225 1.600  Level Orlando TRACON
Sat 17:42:26 28.7833 -81.0500 180° South 121 224 1.600  Level Orlando TRACON
Sat 17:43:26 28.7833 -81.0833 270° West 118 219 1.600 50 Level Orlando TRACON
Sat 17:44:27 28.7833 -81.1333 270° West 109 201 1.700 -198 Climbing Orlando TRACON
Sat 17:45:27 28.7833 -81.1500 270° West 76 140 1.200 -450 Descending Orlando TRACON
Sat 17:46:27 28.7833 -81.1833 270° West 84 156 800 -400 Descending Orlando TRACON

Login

Don't have an account? Register now (free) for customized features, flight alerts, and more!